Location: Unspecified
(0.0000°N, 0.0000°E)
Time: 09:08:28
(UTC+00:00)

Courier 1B Rocket - Pass Details

Date: 27 May 2026
Orbit: 920 x 1201 km, 28.2° (Epoch: 9 June)

Event Time Altitude Azimuth Distance (km) Brightness Sun altitude
Rises 10:36:22 0° 303° (WNW) 3,540 7.9 60.9°
Reaches altitude 10° 10:38:56 10° 305° (NW) 2,605 7.4 61.4°
Maximum altitude 10:45:10 76° 30° (NNE) 966 7.1 62.4°
Drops below altitude 10° 10:51:43 10° 116° (ESE) 2,727 7.6 63.3°
Sets 10:54:28 0° 117° (ESE) 3,717 8.1 63.7°
